[[{"header":{"parameterUnit":"m.s-1","parameterCategory":1,"la1":30.2991,"la2":30.254,"lo1":-89.0895,"lo2":-89.0444,"dy":0.0017,"dx":0.0017,"nx":28,"ny":28,"refTime":"2023-03-13T21:00:00:Z","depth":0,"parameterNumber":2,"parameterNumberName":"U-component_of_WINDS"},"data":[0,0,0,0,0,0,0,0,0,0,0,0,0,0,0,0,0,0,0,0,0,0,0,0,0,0,0,0,0,0,0,0,0,0,0,0,0,0,0,0,0,0,0,0,0,0,0,0,0,0,0,0,0,0,0,0,0,0,-5.0954,-5.0954,0,-5.0978,-5.0978,-5.0979,-5.0869,-5.0866,-5.0863,-5.086,-5.0884,-5.0888,-5.0891,0,0,0,0,0,0,0,0,0,0,0,0,0,-5.0812,-5.0816,-5.0954,-5.0954,-5.0954,-5.0978,-5.0978,-5.0979,-5.087,-5.0866,-5.0862,-5.0858,-5.0883,-5.0887,-5.0892,0,0,0,0,0,0,0,0,0,0,0,0,0,-5.0859,-5.0817,-5.0954,-5.0903,-5.0899,-5.0978,-5.0978,-5.0979,-5.087,-5.0866,-5.0861,-5.0856,-5.0882,-5.0887,-5.0892,-5.1022,0,0,-5.0909,-5.0911,0,0,0,0,0,0,0,0,-5.0857,-5.0864,-5.091,-5.0907,-5.0902,-5.0916,-5.0937,-5.0993,-5.0872,-5.0881,-5.086,-5.0854,-5.0899,-5.0902,-5.0917,-5.1023,-5.1024,-5.0909,-5.0913,-5.0915,-5.0917,0,0,0,0,0,0,0,-5.0853,-5.0863,-5.0963,-5.0911,-5.0906,-5.0879,-5.088,-5.0947,-5.0916,-5.088,-5.0872,-5.0876,-5.0895,-5.0912,-5.0917,-5.1024,-5.0909,-5.0914,-5.0917,-5.0919,-5.1237,-5.1242,0,0,0,0,0,0,-5.0857,-5.0861,-5.0963,-5.0964,-5.0867,-5.0885,-5.0886,-5.0916,-5.0915,-5.0911,-5.088,-5.0871,-5.0905,-5.0911,-5.0918,-5.1069,-5.0915,-5.092,-5.0923,-5.1232,-5.1238,-5.1243,0,0,0,0,0,0,-5.0854,-5.0867,-5.0962,-5.091,-5.092,-5.0893,-5.0927,-5.0919,-5.0936,-5.0916,-5.091,-5.0904,-5.0902,-5.091,-5.0996,-5.1068,-5.0922,-5.0927,-5.1225,-5.1234,-5.1241,-5.1373,0,0,0,0,0,0,-5.0851,-5.0867,-5.0916,-5.0912,-5.0923,-5.1041,-5.0931,-5.0923,-5.0946,-5.0934,-5.0936,-5.0932,-5.0899,-5.0989,-5.1002,-5.1073,-5.0932,-5.1219,-5.1229,-5.1238,-5.1362,-5.1384,-5.1403,0,0,0,0,0,-5.0846,-5.0952,-5.0919,-5.0932,-5.0984,-5.1045,-5.1051,-5.1012,-5.0952,-5.1001,-5.0988,-5.0931,-5.1058,-5.0999,-5.1012,-5.1086,-5.1214,-5.1226,-5.1237,-5.1352,-5.1379,-5.1402,0,0,0,0,0,0,-5.0965,-5.0951,-5.0914,-5.1022,-5.1036,-5.1027,-5.1087,-5.1041,-5.1072,-5.106,-5.1009,-5.101,-5.1106,-5.1104,-5.1039,-5.1211,-5.1126,-5.1141,-5.1209,-5.1234,-5.1254,-5.1253,-5.0936,0,0,0,0,0,-5.1004,-5.1055,-5.1039,-5.1136,-5.1145,-5.1115,-5.114,-5.1108,-5.112,-5.1126,-5.1119,-5.1133,-5.1175,-5.1205,-5.1243,-5.1361,-5.136,-5.1418,-5.1439,-5.1456,-5.1469,-5.1531,-5.1557,-5.1282,-5.1281,-5.1281,0,0,-5.1084,-5.1083,-5.1118,-5.116,-5.1167,-5.122,-5.1121,-5.1182,-5.1221,-5.1135,-5.1216,-5.1212,-5.1224,-5.1327,-5.1372,-5.1329,-5.1545,-5.1471,-5.1484,-5.1489,-5.1546,-5.1572,-5.1596,-5.1289,-5.1288,-5.1287,0,0,-5.1258,-5.1262,-5.1343,-5.1352,-5.1364,-5.1344,-5.1363,-5.1361,-5.1355,-5.1436,-5.1373,-5.1418,-5.1493,-5.1504,-5.152,-5.1699,-5.1648,-5.1712,-5.182,-5.1881,-5.1903,-5.1922,-5.1985,-5.2009,-5.1726,-5.1726,-5.1726,0,-5.1357,-5.1435,-5.1391,-5.1456,-5.1476,-5.1401,-5.1482,-5.1493,-5.1517,-5.1533,-5.1484,-5.1576,-5.1579,-5.1683,-5.1727,-5.1742,-5.1763,-5.1712,-5.1903,-5.1922,-5.1939,-5.1999,-5.2023,-5.1734,-5.1733,-5.1732,-5.1732,0,-5.1555,-5.1611,-5.1675,-5.17,-5.1727,-5.18,-5.1767,-5.18,-5.1766,-5.1751,-5.1834,-5.1835,-5.1872,-5.1894,-5.1861,-5.1994,-5.1967,-5.1912,-5.1825,-5.1974,-5.2029,-5.2052,-5.1745,-5.1742,-5.174,-5.1738,0,0,-5.1805,-5.1804,-5.1828,-5.1839,-5.1846,-5.1888,-5.1958,-5.1994,-5.2024,-5.2043,-5.21,-5.2165,-5.2114,-5.2131,-5.2099,-5.2153,-5.2294,-5.2091,-5.209,-5.2129,-5.2441,-5.2482,-5.2509,-5.2261,-5.2265,-5.2268,-5.2439,0,-5.1975,-5.2094,-5.2056,-5.2176,-5.2227,-5.2156,-5.2217,-5.2228,-5.2216,-5.2257,-5.2243,-5.229,-5.2219,-5.2229,-5.2279,-5.2267,-5.2356,-5.2254,-5.2313,-5.2316,-5.2312,-5.2538,-5.2582,-5.2743,-5.2461,-5.2464,-5.2467,0,-5.2189,-5.2217,-5.2343,-5.2342,-5.2361,-5.2417,-5.2447,-5.2487,-5.2498,-5.2485,-5.2506,-5.2462,-5.253,-5.2444,-5.2537,-5.2468,-5.249,-5.2488,-5.2493,-5.2496,-5.24,-5.2548,-5.2794,-5.2818,-5.2501,-5.2498,-5.2496,0,-5.2358,-5.2427,-5.2511,-5.2522,-5.2523,-5.2564,-5.2566,-5.2572,-5.2597,-5.2623,-5.2638,-5.2672,-5.2691,-5.2719,-5.2685,-5.2626,-5.2783,-5.2694,-5.2774,-5.2776,-5.2811,-5.2809,-5.3064,-5.2826,-5.2826,-5.2825,-5.2825,0,-5.2552,-5.2632,-5.2587,-5.2639,-5.2726,-5.2681,-5.2768,-5.2763,-5.2769,-5.2818,-5.2759,-5.2807,-5.276,-5.2803,-5.2778,-5.2859,-5.2868,-5.2859,-5.2851,-5.2864,-5.2865,-5.2878,-5.2865,-5.2831,-5.283,-5.2829,-5.2828,0,-5.2755,-5.2729,-5.2815,-5.2809,-5.281,-5.2874,-5.2869,-5.2916,-5.2899,-5.2962,-5.2975,-5.2949,-5.2997,-5.2966,-5.3015,-5.2997,-5.3103,-5.308,-5.3099,-5.3093,-5.3175,-5.3168,-5.3446,-5.348,-5.3222,-5.3224,-5.3226,0,-5.2881,-5.294,-5.2941,-5.297,-5.2976,-5.3023,-5.3047,-5.3006,-5.3034,-5.3051,-5.3097,-5.3139,-5.3171,-5.3251,-5.3236,-5.3273,-5.325,-5.3345,-5.3255,-5.3266,-5.3251,-5.3248,-5.3253,-5.3363,-5.3366,-5.3369,-5.3371,0,-5.3106,-5.309,-5.3128,-5.3161,-5.3192,-5.3217,-5.3236,-5.3263,-5.3221,-5.3256,-5.3304,-5.3329,-5.3378,-5.3421,-5.3452,-5.3453,-5.3406,-5.3399,-5.342,-5.3433,-5.3442,-5.3438,-5.3149,-5.3393,-5.3391,-5.3389,-5.3388,-5.3387,-5.3274,-5.3323,-5.3332,-5.3375,-5.3386,-5.3405,-5.345,-5.3439,-5.3478,-5.3515,-5.3488,-5.3546,-5.3555,-5.3591,-5.3599,-5.3643,-5.3605,-5.3634,-5.3642,-5.365,-5.3661,-5.3436,-5.3649,-5.3648,-5.3647,-5.3647,-5.3646,0,-5.3496,-5.3497,-5.3538,-5.3568,-5.3602,-5.3554,-5.3573,-5.3606,-5.3657,-5.367,-5.3702,-5.3758,-5.3799,-5.3788,-5.3825,-5.3863,-5.3842,-5.3874,-5.387,-5.3871,-5.3694,-5.3672,-5.389,-5.389,-5.389,-5.389,-5.389,-5.389,-5.3615,-5.3696,-5.3681,-5.3767,-5.3768,-5.3824,-5.3839,-5.3856,-5.3866,-5.3931,-5.3965,-5.3958,-5.3961,-5.3998,-5.4034,-5.403,-5.4046,-5.4086,-5.4074,-5.3908,-5.3884,-5.3861,-5.384,-5.409,-5.409,-5.4248,-5.4249,-5.425]},{"header":{"parameterUnit":"m.s-1","parameterCategory":1,"la1":30.2991,"la2":30.254,"lo1":-89.0895,"lo2":-89.0444,"dy":0.0017,"dx":0.0017,"nx":28,"ny":28,"refTime":"2023-03-13T21:00:00:Z","depth":0,"parameterNumber":3,"parameterNumberName":"V-component_of_WINDS"},"data":[0,0,0,0,0,0,0,0,0,0,0,0,0,0,0,0,0,0,0,0,0,0,0,0,0,0,0,0,0,0,0,0,0,0,0,0,0,0,0,0,0,0,0,0,0,0,0,0,0,0,0,0,0,0,0,0,0,0,-2.3217,-2.3217,0,-2.3245,-2.3245,-2.3245,-2.322,-2.3219,-2.3218,-2.3217,-2.3245,-2.3247,-2.3249,0,0,0,0,0,0,0,0,0,0,0,0,0,-2.314,-2.3142,-2.3217,-2.3217,-2.3218,-2.3245,-2.3245,-2.3245,-2.322,-2.3219,-2.3217,-2.3216,-2.3245,-2.3247,-2.3249,0,0,0,0,0,0,0,0,0,0,0,0,0,-2.3171,-2.3142,-2.3217,-2.3208,-2.3208,-2.3245,-2.3245,-2.3245,-2.322,-2.3219,-2.3217,-2.3216,-2.3244,-2.3246,-2.3249,-2.3296,0,0,-2.3257,-2.3258,0,0,0,0,0,0,0,0,-2.317,-2.3174,-2.3209,-2.3209,-2.3208,-2.3227,-2.3228,-2.3262,-2.3221,-2.3215,-2.3217,-2.3215,-2.324,-2.3243,-2.3252,-2.3297,-2.3298,-2.3257,-2.3259,-2.326,-2.326,0,0,0,0,0,0,0,-2.3168,-2.3173,-2.3228,-2.321,-2.3209,-2.3202,-2.3205,-2.3235,-2.3236,-2.3216,-2.3214,-2.3218,-2.324,-2.3249,-2.3252,-2.3299,-2.3257,-2.3259,-2.3261,-2.3262,-2.3382,-2.3384,0,0,0,0,0,0,-2.3166,-2.3171,-2.3227,-2.3229,-2.3185,-2.3205,-2.3208,-2.3223,-2.3236,-2.3236,-2.3219,-2.3216,-2.3246,-2.3249,-2.3253,-2.3308,-2.326,-2.3262,-2.3264,-2.3381,-2.3383,-2.3384,0,0,0,0,0,0,-2.3165,-2.3172,-2.3226,-2.3199,-2.3206,-2.3208,-2.3225,-2.3224,-2.3233,-2.3238,-2.3238,-2.3228,-2.3245,-2.325,-2.3285,-2.3309,-2.3263,-2.3266,-2.3379,-2.3381,-2.3384,-2.3419,0,0,0,0,0,0,-2.3163,-2.3171,-2.319,-2.32,-2.3207,-2.3258,-2.3226,-2.3226,-2.3238,-2.3235,-2.3247,-2.3248,-2.3244,-2.3281,-2.3288,-2.3311,-2.3268,-2.3377,-2.338,-2.3383,-2.3415,-2.3422,-2.3428,0,0,0,0,0,-2.316,-2.3199,-2.3191,-2.3198,-2.323,-2.3259,-2.3263,-2.3258,-2.324,-2.3258,-2.3261,-2.3247,-2.3305,-2.3285,-2.3292,-2.3317,-2.3375,-2.3379,-2.3383,-2.3413,-2.3421,-2.3427,0,0,0,0,0,0,-2.3191,-2.32,-2.3191,-2.3234,-2.3246,-2.3255,-2.3278,-2.3267,-2.3284,-2.3281,-2.3273,-2.3276,-2.3314,-2.3319,-2.3297,-2.3362,-2.3337,-2.3342,-2.3357,-2.3365,-2.3371,-2.3369,-2.327,0,0,0,0,0,-2.3203,-2.3226,-2.3232,-2.327,-2.3276,-2.3276,-2.3288,-2.3283,-2.3295,-2.33,-2.3305,-2.3317,-2.3338,-2.3352,-2.3371,-2.3416,-2.3417,-2.3436,-2.3442,-2.3447,-2.3452,-2.3474,-2.3482,-2.3397,-2.3397,-2.3397,0,0,-2.3228,-2.3236,-2.3251,-2.3276,-2.3285,-2.3308,-2.328,-2.3307,-2.3324,-2.3304,-2.3338,-2.3342,-2.3355,-2.3394,-2.3412,-2.34,-2.3476,-2.3452,-2.3456,-2.3458,-2.3479,-2.3487,-2.3494,-2.3399,-2.3399,-2.3398,0,0,-2.3285,-2.3294,-2.3325,-2.3334,-2.3347,-2.3346,-2.3354,-2.3364,-2.3366,-2.3399,-2.3384,-2.3404,-2.344,-2.345,-2.3459,-2.3518,-2.3505,-2.3524,-2.3556,-2.3578,-2.3585,-2.3591,-2.3611,-2.3618,-2.3529,-2.3529,-2.3529,0,-2.3315,-2.335,-2.3343,-2.337,-2.3381,-2.3363,-2.3394,-2.3403,-2.3422,-2.343,-2.3416,-2.3459,-2.3467,-2.3508,-2.3522,-2.3531,-2.3538,-2.3523,-2.3585,-2.359,-2.3596,-2.3615,-2.3623,-2.3531,-2.3531,-2.353,-2.353,0,-2.3384,-2.3409,-2.3432,-2.345,-2.3464,-2.3493,-2.349,-2.3505,-2.3498,-2.3498,-2.3532,-2.354,-2.356,-2.3569,-2.3563,-2.3609,-2.3601,-2.3586,-2.356,-2.3606,-2.3624,-2.3631,-2.3534,-2.3533,-2.3533,-2.3532,0,0,-2.3463,-2.3476,-2.3484,-2.3492,-2.3504,-2.3522,-2.355,-2.3569,-2.3581,-2.3594,-2.3617,-2.3647,-2.3633,-2.3643,-2.3638,-2.3657,-2.3702,-2.364,-2.364,-2.365,-2.3752,-2.3763,-2.3771,-2.3694,-2.3695,-2.3696,-2.375,0,-2.352,-2.3568,-2.3562,-2.3608,-2.3629,-2.3612,-2.3636,-2.3646,-2.3646,-2.3664,-2.3665,-2.3686,-2.3666,-2.3672,-2.3691,-2.3692,-2.3722,-2.3688,-2.3714,-2.3715,-2.3711,-2.3781,-2.3793,-2.3844,-2.3757,-2.3758,-2.3759,0,-2.3594,-2.3608,-2.3656,-2.3664,-2.3672,-2.3694,-2.371,-2.3728,-2.3738,-2.3737,-2.3748,-2.3739,-2.3765,-2.3739,-2.3776,-2.3753,-2.3763,-2.3765,-2.3767,-2.3769,-2.374,-2.3784,-2.386,-2.3867,-2.377,-2.3769,-2.3769,0,-2.3645,-2.3677,-2.371,-2.3716,-2.3726,-2.3741,-2.3746,-2.3755,-2.3766,-2.378,-2.3787,-2.3804,-2.3814,-2.3827,-2.3822,-2.3804,-2.3859,-2.3833,-2.3858,-2.3858,-2.3871,-2.387,-2.3949,-2.3878,-2.3878,-2.3877,-2.3877,0,-2.3709,-2.3739,-2.3733,-2.3753,-2.3785,-2.3777,-2.3809,-2.3812,-2.3819,-2.3839,-2.3825,-2.3843,-2.3836,-2.3854,-2.385,-2.388,-2.3884,-2.3884,-2.3883,-2.3885,-2.3885,-2.3891,-2.3888,-2.3879,-2.3879,-2.3879,-2.3878,0,-2.3773,-2.377,-2.3804,-2.381,-2.3812,-2.3835,-2.384,-2.3858,-2.3857,-2.3882,-2.3887,-2.3886,-2.3906,-2.3902,-2.3925,-2.3922,-2.3959,-2.3954,-2.3956,-2.3955,-2.398,-2.3978,-2.4066,-2.4076,-2.3999,-2.4,-2.4,0,-2.3814,-2.3836,-2.3844,-2.3856,-2.3862,-2.3881,-2.3892,-2.3885,-2.3897,-2.3909,-2.3926,-2.3945,-2.3959,-2.3992,-2.3993,-2.401,-2.4004,-2.4034,-2.4007,-2.4008,-2.4004,-2.4002,-2.4004,-2.4039,-2.404,-2.4041,-2.4041,0,-2.3887,-2.3884,-2.3901,-2.3917,-2.393,-2.3942,-2.3953,-2.3964,-2.3957,-2.3971,-2.3991,-2.4002,-2.4025,-2.4043,-2.4058,-2.4063,-2.4051,-2.405,-2.4056,-2.4059,-2.4059,-2.4059,-2.397,-2.4048,-2.4047,-2.4047,-2.4046,-2.4046,-2.394,-2.3959,-2.3966,-2.3985,-2.3992,-2.4002,-2.4019,-2.402,-2.4037,-2.4054,-2.4048,-2.4071,-2.4079,-2.4098,-2.4104,-2.4121,-2.411,-2.412,-2.4122,-2.4125,-2.4128,-2.4056,-2.4124,-2.4124,-2.4124,-2.4123,-2.4123,0,-2.4012,-2.4016,-2.4033,-2.4048,-2.4062,-2.4049,-2.406,-2.4073,-2.4093,-2.4101,-2.4115,-2.4138,-2.4155,-2.4157,-2.4173,-2.4187,-2.4181,-2.4191,-2.419,-2.4191,-2.4137,-2.4129,-2.4195,-2.4195,-2.4195,-2.4195,-2.4195,-2.4195,-2.4051,-2.4081,-2.4078,-2.4111,-2.4115,-2.4137,-2.4144,-2.4153,-2.4159,-2.4185,-2.4199,-2.42,-2.4205,-2.4221,-2.4236,-2.4236,-2.4243,-2.4254,-2.4252,-2.4202,-2.4195,-2.4188,-2.4181,-2.4256,-2.4256,-2.4304,-2.4305,-2.4305]}]]